Change the Weather History Date:

Saturday, October 23, 2010

  Actual Average Record
Temperature  
Mean Temperature 69 °F 73 °F  
Max Temperature 79 °F 87 °F 104 °F (1959)
Min Temperature 58 °F 60 °F 45 °F (1951)
Degree Days  
Heating Degree Days 0 0  
Month to date heating degree days 0 0  
Since 1 July heating degree days 0 0  
Cooling Degree Days 4 9  
Month to date cooling degree days 301 278  
Year to date cooling degree days 3954 4004  
Growing Degree Days 19 (Base 50)    
Moisture  
Dew Point 50 °F    
Average Humidity 55    
Maximum Humidity 78    
Minimum Humidity 32    
Precipitation  
Precipitation 0.00 in 0.02 in 0.56 in (1941)
Month to date precipitation 0.40 0.30  
Year to date precipitation 5.85 4.19  
Since 1 July precipitation 0.51 1.25  
Snow  
Snow 0.00 in - - ()
Month to date snowfall 0.0  
Year to date snowfall 0.0  
Since 1 July snowfall 0.0  
Snow Depth 0.00 in    
Sea Level Pressure  
Sea Level Pressure 29.97 in    
Wind  
Wind Speed 6 mph (West)    
Max Wind Speed 21 mph    
Max Gust Speed 24 mph    
Visibility 10 miles    
Events      
T = Trace of Precipitation, MM = Missing Value Source: NWS Daily Summary

Daily Weather History Graph

Daily Weather History Graph

Search for Another Location

Airport or City:

Trip Planner

Search our weather history database for the weather conditions in past years. The results will help you decide how hot, cold, wet, or windy it might be!

Date:

Astronomy

Oct. 23, 2010 Rise Set
Actual Time 6:57 AM PDT 6:02 PM PDT
Civil Twilight 6:32 AM PDT 6:28 PM PDT
Nautical Twilight 6:02 AM PDT 6:57 PM PDT
Astronomical Twilight 5:33 AM PDT 7:26 PM PDT
Moon 6:14 PM PDT (10/23) 7:36 AM PDT (10/23)
Length of Visible Light 11h 55m
Length of Day
11h 05m
Full, 100% of the Moon is Illuminated
Oct 23
Full
Oct 30
Last Quarter
Nov 5
New
Nov 13
First Quarter
Nov 21
Full

Hourly Weather History & Observations

Time (PDT) Temp. Dew Point Humidity Pressure Visibility Wind Dir Wind Speed Gust Speed Precip Events Conditions
12:53 AM 66.2 °F 48.2 °F 52% 29.93 in 10.0 mi NW 9.2 mph - N/A   Clear
1:53 AM 63.0 °F 51.1 °F 65% 29.94 in 10.0 mi Calm Calm - N/A   Clear
2:53 AM 64.0 °F 50.0 °F 60% 29.94 in 10.0 mi Variable 3.5 mph - N/A   Clear
3:53 AM 63.0 °F 50.0 °F 63% 29.94 in 10.0 mi Variable 3.5 mph - N/A   Clear
4:53 AM 63.0 °F 48.9 °F 60% 29.94 in 10.0 mi West 3.5 mph - N/A   Clear
5:53 AM 59.0 °F 52.0 °F 78% 29.96 in 10.0 mi Calm Calm - N/A   Clear
6:53 AM 61.0 °F 52.0 °F 72% 29.96 in 10.0 mi Calm Calm - N/A   Mostly Cloudy
7:53 AM 60.1 °F 53.1 °F 78% 29.98 in 10.0 mi Calm Calm - N/A   Scattered Clouds
8:53 AM 64.9 °F 53.1 °F 65% 29.99 in 10.0 mi South 3.5 mph - N/A   Clear
9:53 AM 71.1 °F 50.0 °F 47% 29.99 in 10.0 mi Calm Calm - N/A   Clear
10:53 AM 72.0 °F 48.9 °F 44% 30.00 in 10.0 mi Calm Calm - N/A   Mostly Cloudy
11:53 AM 75.0 °F 48.0 °F 38% 29.99 in 10.0 mi South 6.9 mph - N/A   Clear
12:53 PM 75.9 °F 48.0 °F 37% 29.97 in 10.0 mi South 4.6 mph - N/A   Mostly Cloudy
1:53 PM 77.0 °F 46.0 °F 33% 29.94 in 10.0 mi SE 4.6 mph - N/A   Clear
2:53 PM 79.0 °F 46.9 °F 32% 29.93 in 10.0 mi Variable 4.6 mph - N/A   Clear
3:53 PM 78.1 °F 48.0 °F 35% 29.94 in 10.0 mi NW 16.1 mph 23.0 mph N/A   Scattered Clouds
4:53 PM 75.9 °F 48.0 °F 37% 29.94 in 10.0 mi NW 9.2 mph - N/A   Clear
5:53 PM 73.0 °F 48.9 °F 42% 29.96 in 10.0 mi NW 13.8 mph - N/A   Clear
6:53 PM 72.0 °F 48.9 °F 44% 29.97 in 10.0 mi NW 17.3 mph 20.7 mph N/A   Scattered Clouds
7:53 PM 70.0 °F 50.0 °F 49% 29.98 in 10.0 mi NW 19.6 mph 24.2 mph N/A   Scattered Clouds
8:53 PM 70.0 °F 50.0 °F 49% 29.98 in 10.0 mi WNW 8.1 mph 18.4 mph N/A   Clear
9:53 PM 69.1 °F 51.1 °F 53% 30.00 in 10.0 mi West 5.8 mph - N/A   Clear
10:53 PM 69.1 °F 51.1 °F 53% 30.01 in 10.0 mi WNW 4.6 mph - N/A   Clear
11:53 PM 66.0 °F 52.0 °F 60% 30.02 in 10.0 mi Calm Calm - N/A   Clear